Regional Weather Roundup
Issued by NWS

Home | Current Version | Previous Version | Text Only | Print | Product List | Glossary On
Versions: 1 2 3 4 5 6 7 8 9 10 11 12 13 14 15 16 17 18 19 20 21 22 23 24 25 26 27 28 29 30 31 32 33 34 35 36 37 38 39 40 41 42 43 44 45 46 47 48 49 50
000
ASUS43 KDTX 010501
RWRMI
MICHIGAN HOURLY REGIONAL WEATHER ROUNDUP
NATIONAL WEATHER SERVICE DETROIT/PONTIAC MI
100 AM EDT WED JUL 01 2015

NOTE: "FAIR" INDICATES FEW OR NO CLOUDS BELOW 12,000 FEET WITH NO
SIGNIFICANT WEATHER AND/OR OBSTRUCTION TO VISIBILITY.

MIZ047>049-052>055-059>063-066>070-074>076-081>083-010600-
SOUTHEAST LOWER MICHIGAN

CITY           SKY/WX    TMP DP  RH WIND       PRES   REMARKS
ALMA           CLOUDY    62  62  98 N5        29.83S
BAD AXE        CLOUDY    60  55  83 CALM      29.82S
CARO           CLOUDY    63  60  89 CALM      29.82R
GROSSE ILE     CLEAR     64  63  94 W5        29.78S
HILLSDALE      MOCLDY    62  62 100 W10       29.84S FOG
HOWELL         PTCLDY    62  61  97 NW5       29.81S FOG

CITY           SKY/WX    TMP DP  RH WIND       PRES   REMARKS
JACKSON        CLOUDY    62  60  93 W5        29.82F
LAMBERTVILLE   CLEAR     64  60  87 CALM      29.82S
LAPEER         CLOUDY    61  59  93 CALM      29.82R
MASON          PTCLDY    61  60  97 CALM      29.82S FOG
MONROE         PTCLDY    63  62  96 W3        29.79S
MT. CLEMENS    CLOUDY    62  62  97 N6        29.78S FOG
PORT HOPE        N/A     60  58  92 N7        29.80S
PORT HURON     CLOUDY    59  57  94 N3        29.80S
MIDLAND        CLOUDY    63  61  94 W5        29.82S
TROY           MOCLDY    65  64  97 CALM      29.82R FOG
SAGINAW HB     CLOUDY    63  57  82 CALM      29.82R
$$
MIZ043>046-050>051-056>058-064>065-071>073-077>080-010600-
SOUTHWEST LOWER MICHIGAN

CITY           SKY/WX    TMP DP  RH WIND       PRES   REMARKS
BIG RAPIDS     CLOUDY    55  51  85 NW8       29.87R
COLDWATER      PTCLDY    58  57  96 W5        29.85S
FREMONT        CLOUDY    55  53  94 N12       29.87S
IONIA          CLOUDY    61  59  94 NW7       29.83F
LUDINGTON      CLOUDY    56  51  84 N8        29.91S
MARSHALL       CLOUDY    61  58  92 W5        29.84S
MOUNT PLEASANT CLOUDY    58  57  94 NW6       29.83S
SOUTH HAVEN    CLEAR     60  54  81 N6        29.88S
$$
MIZ016>042-010600-
NORTHERN LOWER MICHIGAN

CITY           SKY/WX    TMP DP  RH WIND       PRES   REMARKS
BEAVER ISLAND  CLOUDY    49  48  93 N5        29.88S
BELLAIRE       CLOUDY    54  49  85 W3        29.88S
CADILLAC       CLOUDY    51  49  95 NW9       29.87S FOG
CHARLEVOIX     CLOUDY    53  50  89 NW6       29.91R
FRANKFORT      CLOUDY    54  46  74 NW6       29.91R
GRAYLING       CLOUDY    54  52  95 W8        29.87S FOG
HARBOR SPRINGS CLOUDY    55  53  93 CALM      29.86S
OSCODA         CLOUDY    62  58  89 CALM      29.80F
ROGERS CITY    CLOUDY    60  59  97 CALM      29.83S FOG
$$
MIZ007>008-015-010600-
EASTERN UPPER MICHIGAN

CITY           SKY/WX    TMP DP  RH WIND       PRES   REMARKS
MACKINAC ISLAN CLOUDY    55  55 100 N7        29.84F
NEWBERRY       FOG       45  45 100 N5        29.88S VSB 3/4
MUNISING         N/A     48  45  89 N12       29.93S
$$
MIZ004>006-011>014-085-010600-
CENTRAL UPPER MICHIGAN

CITY           SKY/WX    TMP DP  RH WIND       PRES   REMARKS
MANISTIQUE     CLOUDY    46  44  93 N10G17    29.89R
SAWYER-GWINN   CLOUDY    46  43  90 N10       29.95R
$$
MIZ001>003-009>011-084-010600-
WESTERN UPPER MICHIGAN

CITY           SKY/WX    TMP DP  RH WIND       PRES   REMARKS
COPPER HARBOR    N/A     46  41  82 N9        29.99S
$$

ABBREVIATIONS USED IN REMARKS
   TC - TEMPERATURE IN CELSIUS
  WCI - WIND CHILL INDEX
   HX - HEAT INDEX
  VSB - VISIBILITY



USA.gov is the U.S. government's official web portal to all federal, state and local government web resources and services.